Litchfield, MN

1:11 PM CDT on June 27, 2017 (GMT -0500)
Litchfield Municipal

Weather History for KLJF - May, 2013

Change the Weather History Date:

Wednesday, May 1, 2013

  Actual Average Record
Temperature  
Mean Temperature 43 °F -  
Max Temperature 51 °F 61 °F 96 °F (1959)
Min Temperature 35 °F 39 °F 24 °F (1961)
Degree Days  
Heating Degree Days 22    
Moisture  
Dew Point 27 °F    
Average Humidity 58    
Maximum Humidity 87    
Minimum Humidity 46    
Precipitation  
Precipitation 0.00 in - - ()
Sea Level Pressure  
Sea Level Pressure 30.31 in    
Wind  
Wind Speed 13 mph (NNW)    
Max Wind Speed 18 mph    
Max Gust Speed 30 mph    
Visibility 10 miles    
Events Snow    
Averages and records for this station are not official NWS values.
T = Trace of Precipitation, MM = Missing Value Source: NWS Daily Summary

Daily Weather History Graph

Daily Weather History Graph

Search for Another Location

Airport or City:

Trip Planner

Search our weather history database for the weather conditions in past years. The results will help you decide how hot, cold, wet, or windy it might be!

Date:

Astronomy

May. 01, 2013 Rise Set
Actual Time 6:06 AM CDT 8:24 PM CDT
Civil Twilight 5:34 AM CDT 8:56 PM CDT
Nautical Twilight 4:54 AM CDT 9:37 PM CDT
Astronomical Twilight 4:08 AM CDT 10:22 PM CDT
Moon 1:35 AM CDT (5/1) 11:46 AM CDT (5/1)
Length of Visible Light 15h 22m
Length of Day
14h 17m
Waning Gibbous, 59% of the Moon is Illuminated
May 1
Waning Gibbous
May 2
Last Quarter
May 9
New
May 17
First Quarter
May 24
Full

Hourly Weather History & Observations

Time (CDT) Temp. Windchill Dew Point Humidity Pressure Visibility Wind Dir Wind Speed Gust Speed Precip Events Conditions
12:13 AM 51.8 °F - 33.8 °F 50% 30.00 in 10.0 mi NNW 18.4 mph 27.6 mph N/A   Overcast
12:30 AM 50.0 °F - 33.8 °F 54% 29.99 in 10.0 mi NNW 15.0 mph 25.3 mph N/A   Overcast
12:53 AM 48.2 °F - 33.8 °F 58% 30.01 in 10.0 mi NW 16.1 mph 20.7 mph N/A   Overcast
1:12 AM 48.2 °F - 33.8 °F 58% 30.04 in 10.0 mi NW 13.8 mph 21.9 mph N/A   Overcast
1:33 AM 48.2 °F - 30.2 °F 50% 30.06 in 10.0 mi NW 18.4 mph 26.5 mph N/A   Overcast
1:53 AM 46.4 °F 39.5 °F 30.2 °F 53% 30.09 in 10.0 mi NW 17.3 mph 29.9 mph N/A   Overcast
2:12 AM 46.4 °F 40.7 °F 30.2 °F 53% 30.08 in 10.0 mi NW 12.7 mph 19.6 mph N/A   Mostly Cloudy
2:33 AM 44.6 °F 39.7 °F 28.4 °F 53% 30.09 in 10.0 mi NW 9.2 mph - N/A   Mostly Cloudy
3:12 AM 44.6 °F 38.8 °F 28.4 °F 53% 30.08 in 10.0 mi NW 11.5 mph 17.3 mph N/A   Mostly Cloudy
3:33 AM 42.8 °F 37.0 °F 30.2 °F 61% 30.09 in 10.0 mi NW 10.4 mph - N/A   Scattered Clouds
4:12 AM 41.0 °F 34.7 °F 30.2 °F 65% 30.10 in 10.0 mi NW 10.4 mph - N/A   Mostly Cloudy
4:33 AM 41.0 °F 35.2 °F 28.4 °F 61% 30.12 in 10.0 mi NW 9.2 mph - N/A   Scattered Clouds
5:13 AM 39.2 °F 33.0 °F 30.2 °F 70% 30.16 in 10.0 mi NW 9.2 mph - N/A   Mostly Cloudy
5:33 AM 39.2 °F 33.0 °F 30.2 °F 70% 30.16 in 10.0 mi NNW 9.2 mph - N/A   Mostly Cloudy
5:53 AM 39.2 °F 32.0 °F 30.2 °F 70% 30.19 in 10.0 mi NW 11.5 mph 16.1 mph N/A   Overcast
6:13 AM 39.2 °F 33.0 °F 30.2 °F 70% 30.21 in 10.0 mi NW 9.2 mph - N/A   Overcast
6:33 AM 39.2 °F 34.2 °F 28.4 °F 65% 30.23 in 10.0 mi NW 6.9 mph - N/A   Overcast
6:53 AM 37.4 °F 31.4 °F 28.4 °F 70% 30.27 in 10.0 mi NW 8.1 mph - N/A   Overcast
7:13 AM 37.4 °F 31.4 °F 28.4 °F 70% 30.29 in 10.0 mi NW 8.1 mph - N/A   Overcast
7:33 AM 35.6 °F 29.2 °F 32.0 °F 87% 30.28 in 2.0 mi NW 8.1 mph - N/A Snow Light Snow
8:12 AM 35.6 °F 32.8 °F 32.0 °F 87% 30.29 in 7.0 mi West 3.5 mph - N/A Snow Light Snow
8:33 AM 35.6 °F 29.2 °F 28.4 °F 75% 30.29 in 10.0 mi WNW 8.1 mph - N/A   Overcast
8:53 AM 35.6 °F 27.5 °F 26.6 °F 70% 30.30 in 10.0 mi NW 11.5 mph - N/A   Mostly Cloudy
9:12 AM 35.6 °F 29.2 °F 24.8 °F 65% 30.31 in 10.0 mi NW 8.1 mph - N/A   Scattered Clouds
9:33 AM 35.6 °F 28.0 °F 26.6 °F 70% 30.29 in 10.0 mi NW 10.4 mph - N/A   Clear
9:52 AM 35.6 °F 28.6 °F 24.8 °F 65% 30.30 in 10.0 mi NW 9.2 mph - N/A   Clear
10:13 AM 37.4 °F 31.4 °F 26.6 °F 65% 30.31 in 10.0 mi NW 8.1 mph - N/A   Clear
10:32 AM 37.4 °F 29.3 °F 24.8 °F 60% 30.32 in 10.0 mi WNW 12.7 mph - N/A   Clear
10:53 AM 37.4 °F 29.8 °F 24.8 °F 60% 30.35 in 10.0 mi WNW 11.5 mph 17.3 mph N/A   Scattered Clouds
11:12 AM 37.4 °F 28.9 °F 24.8 °F 60% 30.35 in 10.0 mi NW 13.8 mph - N/A   Scattered Clouds
11:33 AM 39.2 °F 30.8 °F 24.8 °F 56% 30.34 in 10.0 mi NNW 15.0 mph 19.6 mph N/A   Clear
11:53 AM 39.2 °F 31.6 °F 24.8 °F 56% 30.34 in 10.0 mi NW 12.7 mph 18.4 mph N/A   Clear
12:12 PM 39.2 °F 32.5 °F 24.8 °F 56% 30.34 in 10.0 mi NNW 10.4 mph 18.4 mph N/A   Clear
12:33 PM 41.0 °F 33.9 °F 24.8 °F 53% 30.35 in 10.0 mi NNW 12.7 mph 18.4 mph N/A   Clear
12:52 PM 39.2 °F 31.6 °F 24.8 °F 56% 30.35 in 10.0 mi NNW 12.7 mph 21.9 mph N/A   Clear
1:13 PM 41.0 °F 33.9 °F 24.8 °F 53% 30.35 in 10.0 mi NW 12.7 mph 20.7 mph N/A   Clear
1:33 PM 42.8 °F 35.4 °F 26.6 °F 53% 30.36 in 10.0 mi NNW 15.0 mph - N/A   Clear
1:52 PM 42.8 °F 35.8 °F 26.6 °F 53% 30.37 in 10.0 mi NNW 13.8 mph 21.9 mph N/A   Clear
2:13 PM 44.6 °F 38.4 °F 26.6 °F 49% 30.38 in 10.0 mi NW 12.7 mph 20.7 mph N/A   Clear
2:33 PM 42.8 °F 35.1 °F 26.6 °F 53% 30.37 in 10.0 mi NW 16.1 mph 20.7 mph N/A   Clear
3:13 PM 44.6 °F 37.8 °F 26.6 °F 49% 30.38 in 10.0 mi NNW 15.0 mph 20.7 mph N/A   Clear
3:32 PM 44.6 °F 37.4 °F 24.8 °F 46% 30.38 in 10.0 mi North 16.1 mph 21.9 mph N/A   Clear
4:13 PM 42.8 °F 35.1 °F 24.8 °F 49% 30.39 in 10.0 mi North 16.1 mph - N/A   Scattered Clouds
4:32 PM 44.6 °F 38.1 °F 24.8 °F 46% 30.41 in 10.0 mi NNW 13.8 mph - N/A   Scattered Clouds
4:53 PM 44.6 °F 37.4 °F 24.8 °F 46% 30.40 in 10.0 mi NNW 16.1 mph 21.9 mph N/A   Clear
5:13 PM 44.6 °F 37.4 °F 24.8 °F 46% 30.41 in 10.0 mi North 16.1 mph 20.7 mph N/A   Clear
5:32 PM 44.6 °F 37.4 °F 24.8 °F 46% 30.41 in 10.0 mi NNW 16.1 mph 20.7 mph N/A   Clear
5:53 PM 44.6 °F 38.1 °F 26.6 °F 49% 30.43 in 10.0 mi North 13.8 mph 23.0 mph N/A   Clear
6:13 PM 44.6 °F 37.8 °F 26.6 °F 49% 30.43 in 10.0 mi North 15.0 mph 21.9 mph N/A   Clear
6:32 PM 44.6 °F 38.1 °F 26.6 °F 49% 30.44 in 10.0 mi NNW 13.8 mph - N/A   Clear
6:53 PM 42.8 °F 35.4 °F 24.8 °F 49% 30.44 in 10.0 mi North 15.0 mph 20.7 mph N/A   Clear
7:13 PM 44.6 °F 38.1 °F 24.8 °F 46% 30.45 in 10.0 mi North 13.8 mph - N/A   Clear
7:32 PM 44.6 °F 38.8 °F 26.6 °F 49% 30.46 in 10.0 mi North 11.5 mph - N/A   Clear
7:53 PM 44.6 °F 38.4 °F 26.6 °F 49% 30.45 in 10.0 mi North 12.7 mph - N/A   Scattered Clouds
8:32 PM 42.8 °F 35.8 °F 26.6 °F 53% 30.47 in 10.0 mi NNW 13.8 mph - N/A   Clear
8:53 PM 42.8 °F 35.4 °F 26.6 °F 53% 30.48 in 10.0 mi NNW 15.0 mph - N/A   Clear
9:32 PM 42.8 °F 35.8 °F 26.6 °F 53% 30.49 in 10.0 mi NNW 13.8 mph 20.7 mph N/A   Scattered Clouds
9:53 PM 41.0 °F 32.2 °F 26.6 °F 57% 30.49 in 10.0 mi NNW 18.4 mph 23.0 mph N/A   Scattered Clouds
10:13 PM 41.0 °F 33.9 °F 26.6 °F 57% 30.49 in 10.0 mi North 12.7 mph 21.9 mph N/A   Clear
10:32 PM 41.0 °F 33.9 °F 26.6 °F 57% 30.49 in 10.0 mi North 12.7 mph - N/A   Scattered Clouds
10:53 PM 41.0 °F 34.3 °F 26.6 °F 57% 30.49 in 10.0 mi North 11.5 mph - N/A   Scattered Clouds
11:13 PM 39.2 °F 30.8 °F 28.4 °F 65% 30.49 in 10.0 mi North 15.0 mph 20.7 mph N/A   Clear
11:33 PM 39.2 °F 30.5 °F 28.4 °F 65% 30.50 in 10.0 mi NNW 16.1 mph - N/A   Clear
11:53 PM 39.2 °F 31.2 °F 28.4 °F 65% 30.51 in 10.0 mi NNW 13.8 mph - N/A   Clear